Time,TemperatureF,DewpointF,PressureIn,WindDirection,WindDirectionDegrees,WindSpeedMPH,WindSpeedGustMPH,Humidity,HourlyPrecipIn,Conditions,Clouds,dailyrainin,SoftwareType,DateUTC
2013-04-30 00:00:00,52.9,31.4,30.34,SSE,157,0.0,3.4,44,0.00,,,0.00,WUHU21623XXSP,2013-04-30 04:00:00,
2013-04-30 00:01:00,52.9,32.5,30.34,SSE,157,0.0,3.4,46,0.00,,,0.00,WUHU21623XXSP,2013-04-30 04:01:00,
2013-04-30 00:06:00,53.4,31.9,30.34,SSE,157,0.0,1.8,44,0.00,,,0.00,WUHU21623XXSP,2013-04-30 04:06:00,
2013-04-30 00:11:00,53.2,31.2,30.34,SSE,157,0.0,1.8,43,0.00,,,0.00,WUHU21623XXSP,2013-04-30 04:11:00,
2013-04-30 00:16:00,53.4,32.5,30.34,SE,135,0.0,2.7,45,0.00,,,0.00,WUHU21623XXSP,2013-04-30 04:16:00,
2013-04-30 00:21:00,52.9,30.9,30.34,SE,135,0.0,2.9,43,0.00,,,0.00,WUHU21623XXSP,2013-04-30 04:21:00,
2013-04-30 00:26:00,52.9,30.3,30.34,SSE,157,0.0,6.3,42,0.00,,,0.00,WUHU21623XXSP,2013-04-30 04:26:00,
2013-04-30 00:31:00,52.5,30.0,30.34,SSE,157,0.0,7.6,42,0.00,,,0.00,WUHU21623XXSP,2013-04-30 04:31:00,
2013-04-30 00:36:00,52.3,30.4,30.34,SSE,157,0.0,7.6,43,0.00,,,0.00,WUHU21623XXSP,2013-04-30 04:36:00,
2013-04-30 00:41:00,52.3,30.4,30.34,South,180,0.0,6.9,43,0.00,,,0.00,WUHU21623XXSP,2013-04-30 04:41:00,
2013-04-30 00:46:00,52.3,29.8,30.35,SSE,157,0.0,6.9,42,0.00,,,0.00,WUHU21623XXSP,2013-04-30 04:46:00,
2013-04-30 00:51:00,52.3,29.8,30.34,SSE,157,6.3,6.3,42,0.00,,,0.00,WUHU21623XXSP,2013-04-30 04:51:00,
2013-04-30 00:56:00,52.3,30.4,30.34,ESE,112,0.0,6.3,43,0.00,,,0.00,WUHU21623XXSP,2013-04-30 04:56:00,
2013-04-30 01:01:00,52.3,29.8,30.35,SSE,157,0.0,6.5,42,0.00,,,0.00,WUHU21623XXSP,2013-04-30 05:01:00,
2013-04-30 01:06:00,52.3,29.8,30.34,SE,135,0.0,6.5,42,0.00,,,0.00,WUHU21623XXSP,2013-04-30 05:06:00,
2013-04-30 01:11:00,52.3,28.7,30.34,SE,135,0.0,3.4,40,0.00,,,0.00,WUHU21623XXSP,2013-04-30 05:11:00,
2013-04-30 01:16:00,52.0,30.1,30.34,SE,135,0.0,0.0,43,0.00,,,0.00,WUHU21623XXSP,2013-04-30 05:16:00,
2013-04-30 01:21:00,52.0,28.9,30.34,SE,135,0.0,3.4,41,0.00,,,0.00,WUHU21623XXSP,2013-04-30 05:21:00,
2013-04-30 01:26:00,52.0,28.9,30.34,SSE,157,0.0,4.7,41,0.00,,,0.00,WUHU21623XXSP,2013-04-30 05:26:00,
2013-04-30 01:31:00,52.0,29.5,30.34,SSE,157,0.0,4.7,42,0.00,,,0.00,WUHU21623XXSP,2013-04-30 05:31:00,
2013-04-30 01:36:00,51.6,29.2,30.34,SSE,157,0.0,0.0,42,0.00,,,0.00,WUHU21623XXSP,2013-04-30 05:36:00,
2013-04-30 01:41:00,51.6,29.2,30.34,SSE,157,0.0,0.0,42,0.00,,,0.00,WUHU21623XXSP,2013-04-30 05:41:00,
2013-04-30 01:46:00,51.6,29.2,30.34,SSE,157,0.0,0.0,42,0.00,,,0.00,WUHU21623XXSP,2013-04-30 05:46:00,
2013-04-30 01:51:00,51.6,29.2,30.34,SE,135,0.0,2.9,42,0.00,,,0.00,WUHU21623XXSP,2013-04-30 05:51:00,
2013-04-30 01:56:00,51.6,29.2,30.35,SE,135,0.0,2.9,42,0.00,,,0.00,WUHU21623XXSP,2013-04-30 05:56:00,
2013-04-30 02:01:00,51.6,29.7,30.34,SSE,157,0.0,2.7,43,0.00,,,0.00,WUHU21623XXSP,2013-04-30 06:01:00,
2013-04-30 02:06:00,51.6,29.7,30.34,SSE,157,0.0,2.7,43,0.00,,,0.00,WUHU21623XXSP,2013-04-30 06:06:00,
2013-04-30 02:11:00,51.6,29.2,30.34,SSE,157,0.0,0.0,42,0.00,,,0.00,WUHU21623XXSP,2013-04-30 06:11:00,
2013-04-30 02:16:00,51.6,29.2,30.34,SSE,157,0.0,0.0,42,0.00,,,0.00,WUHU21623XXSP,2013-04-30 06:16:00,
2013-04-30 02:21:00,51.4,31.2,30.34,SSE,157,0.0,0.0,46,0.00,,,0.00,WUHU21623XXSP,2013-04-30 06:21:00,
2013-04-30 02:26:00,51.4,30.1,30.34,SSE,157,0.0,0.0,44,0.00,,,0.00,WUHU21623XXSP,2013-04-30 06:26:00,
2013-04-30 02:31:00,51.1,30.9,30.34,SSE,157,0.0,0.0,46,0.00,,,0.00,WUHU21623XXSP,2013-04-30 06:31:00,
2013-04-30 02:36:00,51.1,29.8,30.34,SSE,157,0.0,0.0,44,0.00,,,0.00,WUHU21623XXSP,2013-04-30 06:36:00,
2013-04-30 02:41:00,51.1,29.8,30.34,SSE,157,0.0,0.0,44,0.00,,,0.00,WUHU21623XXSP,2013-04-30 06:41:00,
2013-04-30 02:46:00,51.1,29.8,30.34,SSE,157,0.0,0.0,44,0.00,,,0.00,WUHU21623XXSP,2013-04-30 06:46:00,
2013-04-30 02:51:00,51.1,29.8,30.34,SSE,157,0.0,0.0,44,0.00,,,0.00,WUHU21623XXSP,2013-04-30 06:51:00,
2013-04-30 02:56:00,51.1,29.8,30.34,South,180,0.0,4.3,44,0.00,,,0.00,WUHU21623XXSP,2013-04-30 06:56:00,
2013-04-30 03:01:00,50.9,29.1,30.35,ESE,112,0.0,4.3,43,0.00,,,0.00,WUHU21623XXSP,2013-04-30 07:01:00,
2013-04-30 03:06:00,50.9,28.5,30.35,SE,135,0.0,7.2,42,0.00,,,0.00,WUHU21623XXSP,2013-04-30 07:06:00,
2013-04-30 03:11:00,51.1,28.1,30.35,SSE,157,0.0,7.2,41,0.00,,,0.00,WUHU21623XXSP,2013-04-30 07:11:00,
2013-04-30 03:16:00,51.1,28.1,30.35,SSE,157,0.0,3.8,41,0.00,,,0.00,WUHU21623XXSP,2013-04-30 07:16:00,
2013-04-30 03:21:00,51.1,28.7,30.35,SSE,157,0.0,0.0,42,0.00,,,0.00,WUHU21623XXSP,2013-04-30 07:21:00,
2013-04-30 03:26:00,51.1,28.7,30.35,SSE,157,0.0,0.0,42,0.00,,,0.00,WUHU21623XXSP,2013-04-30 07:26:00,
2013-04-30 03:31:00,50.9,29.1,30.35,SSE,157,0.0,0.0,43,0.00,,,0.00,WUHU21623XXSP,2013-04-30 07:31:00,
2013-04-30 03:36:00,51.1,29.8,30.35,SSE,157,0.0,0.0,44,0.00,,,0.00,WUHU21623XXSP,2013-04-30 07:36:00,
2013-04-30 03:41:00,50.9,29.1,30.35,SSE,157,0.0,0.0,43,0.00,,,0.00,WUHU21623XXSP,2013-04-30 07:41:00,
2013-04-30 03:46:00,50.7,29.5,30.35,SSE,157,0.0,0.0,44,0.00,,,0.00,WUHU21623XXSP,2013-04-30 07:46:00,
2013-04-30 03:51:00,50.7,29.5,30.35,SSE,157,0.0,0.0,44,0.00,,,0.00,WUHU21623XXSP,2013-04-30 07:51:00,
2013-04-30 03:56:00,50.7,28.9,30.35,SSE,157,0.0,0.0,43,0.00,,,0.00,WUHU21623XXSP,2013-04-30 07:56:00,
2013-04-30 04:01:00,50.7,30.6,30.35,SSE,157,0.0,0.0,46,0.00,,,0.00,WUHU21623XXSP,2013-04-30 08:01:00,
2013-04-30 04:06:00,50.5,29.3,30.35,SSE,157,0.0,0.0,44,0.00,,,0.00,WUHU21623XXSP,2013-04-30 08:06:00,
2013-04-30 04:11:00,50.7,29.5,30.36,SSE,157,0.0,0.0,44,0.00,,,0.00,WUHU21623XXSP,2013-04-30 08:11:00,
2013-04-30 04:16:00,50.4,29.7,30.36,SSE,157,0.0,0.0,45,0.00,,,0.00,WUHU21623XXSP,2013-04-30 08:16:00,
2013-04-30 04:21:00,50.2,29.0,30.36,SSE,157,0.0,0.0,44,0.00,,,0.00,WUHU21623XXSP,2013-04-30 08:21:00,
2013-04-30 04:26:00,50.4,29.7,30.36,SSE,157,0.0,0.0,45,0.00,,,0.00,WUHU21623XXSP,2013-04-30 08:26:00,
2013-04-30 04:31:00,50.2,29.0,30.36,SSE,157,0.0,0.0,44,0.00,,,0.00,WUHU21623XXSP,2013-04-30 08:31:00,
2013-04-30 04:36:00,50.2,28.4,30.36,SSE,157,0.0,0.0,43,0.00,,,0.00,WUHU21623XXSP,2013-04-30 08:36:00,
2013-04-30 04:41:00,49.8,29.8,30.36,SSE,157,0.0,0.0,46,0.00,,,0.00,WUHU21623XXSP,2013-04-30 08:41:00,
2013-04-30 04:46:00,49.8,30.3,30.36,SSE,157,0.0,0.0,47,0.00,,,0.00,WUHU21623XXSP,2013-04-30 08:46:00,
2013-04-30 04:51:00,49.6,30.7,30.36,SSE,157,0.0,0.0,48,0.00,,,0.00,WUHU21623XXSP,2013-04-30 08:51:00,
2013-04-30 04:56:00,49.8,30.9,30.36,SSE,157,0.0,0.0,48,0.00,,,0.00,WUHU21623XXSP,2013-04-30 08:56:00,
2013-04-30 05:01:00,49.8,30.9,30.37,SSE,157,0.0,0.0,48,0.00,,,0.00,WUHU21623XXSP,2013-04-30 09:01:00,
2013-04-30 05:06:00,49.8,30.9,30.36,SSE,157,0.0,0.0,48,0.00,,,0.00,WUHU21623XXSP,2013-04-30 09:06:00,
2013-04-30 05:11:00,49.6,31.3,30.36,SSE,157,0.0,0.0,49,0.00,,,0.00,WUHU21623XXSP,2013-04-30 09:11:00,
2013-04-30 05:16:00,49.6,31.8,30.37,SSE,157,0.0,0.0,50,0.00,,,0.00,WUHU21623XXSP,2013-04-30 09:16:00,
2013-04-30 05:21:00,49.6,32.3,30.37,SSE,157,0.0,0.0,51,0.00,,,0.00,WUHU21623XXSP,2013-04-30 09:21:00,
2013-04-30 05:26:00,49.6,32.3,30.37,SSE,157,0.0,0.0,51,0.00,,,0.00,WUHU21623XXSP,2013-04-30 09:26:00,
2013-04-30 05:31:00,49.6,31.8,30.37,SSE,157,0.0,0.0,50,0.00,,,0.00,WUHU21623XXSP,2013-04-30 09:31:00,
2013-04-30 05:36:00,49.5,32.1,30.37,SSE,157,0.0,0.0,51,0.00,,,0.00,WUHU21623XXSP,2013-04-30 09:36:00,
2013-04-30 05:41:00,49.3,31.9,30.37,SSE,157,0.0,0.0,51,0.00,,,0.00,WUHU21623XXSP,2013-04-30 09:41:00,
2013-04-30 05:46:00,49.1,31.3,30.37,SSE,157,0.0,0.0,50,0.00,,,0.00,WUHU21623XXSP,2013-04-30 09:46:00,
2013-04-30 05:51:00,48.9,31.1,30.38,SSE,157,0.0,0.0,50,0.00,,,0.00,WUHU21623XXSP,2013-04-30 09:51:00,
2013-04-30 05:56:00,49.1,31.3,30.37,SSE,157,0.0,0.0,50,0.00,,,0.00,WUHU21623XXSP,2013-04-30 09:56:00,
2013-04-30 06:01:00,48.9,31.1,30.38,SSE,157,0.0,0.0,50,0.00,,,0.00,WUHU21623XXSP,2013-04-30 10:01:00,
2013-04-30 06:06:00,48.7,31.4,30.38,SSE,157,0.0,0.0,51,0.00,,,0.00,WUHU21623XXSP,2013-04-30 10:06:00,
2013-04-30 06:11:00,48.9,31.6,30.38,SSE,157,0.0,0.0,51,0.00,,,0.00,WUHU21623XXSP,2013-04-30 10:11:00,
2013-04-30 06:16:00,49.1,31.3,30.38,SSE,157,0.0,0.0,50,0.00,,,0.00,WUHU21623XXSP,2013-04-30 10:16:00,
2013-04-30 06:21:00,49.1,31.3,30.38,SSE,157,0.0,0.0,50,0.00,,,0.00,WUHU21623XXSP,2013-04-30 10:21:00,
2013-04-30 06:26:00,49.1,32.2,30.38,SSE,157,0.0,0.0,52,0.00,,,0.00,WUHU21623XXSP,2013-04-30 10:26:00,
2013-04-30 06:31:00,49.3,33.3,30.38,SSE,157,0.0,0.0,54,0.00,,,0.00,WUHU21623XXSP,2013-04-30 10:31:00,
2013-04-30 06:36:00,49.3,32.8,30.38,SSE,157,0.0,0.0,53,0.00,,,0.00,WUHU21623XXSP,2013-04-30 10:36:00,
2013-04-30 06:41:00,49.3,33.7,30.38,SSE,157,0.0,0.0,55,0.00,,,0.00,WUHU21623XXSP,2013-04-30 10:41:00,
2013-04-30 06:46:00,49.6,34.1,30.38,SSE,157,0.0,0.0,55,0.00,,,0.00,WUHU21623XXSP,2013-04-30 10:46:00,
2013-04-30 06:51:00,49.6,33.6,30.39,SSE,157,0.0,0.0,54,0.00,,,0.00,WUHU21623XXSP,2013-04-30 10:51:00,
2013-04-30 06:56:00,49.6,33.2,30.39,SSE,157,0.0,0.0,53,0.00,,,0.00,WUHU21623XXSP,2013-04-30 10:56:00,
2013-04-30 07:01:00,49.6,33.6,30.39,SSE,157,0.0,0.0,54,0.00,,,0.00,WUHU21623XXSP,2013-04-30 11:01:00,
2013-04-30 07:06:00,49.8,33.8,30.39,SSE,157,0.0,0.0,54,0.00,,,0.00,WUHU21623XXSP,2013-04-30 11:06:00,
2013-04-30 07:11:00,50.2,35.0,30.39,SSE,157,0.0,0.0,56,0.00,,,0.00,WUHU21623XXSP,2013-04-30 11:11:00,
2013-04-30 07:16:00,51.1,35.9,30.39,SSE,157,0.0,0.0,56,0.00,,,0.00,WUHU21623XXSP,2013-04-30 11:16:00,
2013-04-30 07:20:00,50.5,33.6,30.39,SSE,157,0.0,0.0,52,0.00,,,0.00,WUHU21623XXSP,2013-04-30 11:20:00,
2013-04-30 07:21:00,50.5,33.6,30.39,SSE,157,0.0,0.0,52,0.00,,,0.00,WUHU21623XXSP,2013-04-30 11:21:00,
2013-04-30 07:25:00,50.4,33.9,30.39,SSE,157,0.0,0.0,53,0.00,,,0.00,WUHU21623XXSP,2013-04-30 11:25:00,
2013-04-30 07:40:00,50.7,33.7,30.40,SSE,157,0.0,0.0,52,0.00,,,0.00,WUHU21623XXSP,2013-04-30 11:40:00,
2013-04-30 07:45:00,50.9,33.4,30.41,SSE,157,0.0,0.0,51,0.00,,,0.00,WUHU21623XXSP,2013-04-30 11:45:00,
2013-04-30 07:50:00,50.9,33.0,30.41,SSE,157,0.0,0.0,50,0.00,,,0.00,WUHU21623XXSP,2013-04-30 11:50:00,
2013-04-30 07:55:00,51.1,30.9,30.41,SSE,157,0.0,0.0,46,0.00,,,0.00,WUHU21623XXSP,2013-04-30 11:55:00,
2013-04-30 08:00:00,51.3,31.1,30.41,SSE,157,0.0,0.0,46,0.00,,,0.00,WUHU21623XXSP,2013-04-30 12:00:00,
2013-04-30 08:05:00,51.6,31.4,30.41,SSE,157,0.0,0.0,46,0.00,,,0.00,WUHU21623XXSP,2013-04-30 12:05:00,
2013-04-30 08:10:00,51.6,29.7,30.41,SSE,157,0.0,0.0,43,0.00,,,0.00,WUHU21623XXSP,2013-04-30 12:10:00,
2013-04-30 08:15:00,51.8,29.3,30.41,SSE,157,0.0,0.0,42,0.00,,,0.00,WUHU21623XXSP,2013-04-30 12:15:00,
2013-04-30 08:20:00,52.3,30.4,30.41,SSE,157,0.0,0.0,43,0.00,,,0.00,WUHU21623XXSP,2013-04-30 12:20:00,
2013-04-30 08:25:00,52.3,30.4,30.41,SSE,157,0.0,0.9,43,0.00,,,0.00,WUHU21623XXSP,2013-04-30 12:25:00,
2013-04-30 08:30:00,52.5,31.1,30.42,SSE,157,3.1,3.6,44,0.00,,,0.00,WUHU21623XXSP,2013-04-30 12:30:00,
2013-04-30 08:35:00,52.5,31.7,30.41,SSE,157,0.0,3.6,45,0.00,,,0.00,WUHU21623XXSP,2013-04-30 12:35:00,
2013-04-30 08:40:00,52.7,31.8,30.41,SSE,157,0.0,3.1,45,0.00,,,0.00,WUHU21623XXSP,2013-04-30 12:40:00,
2013-04-30 08:45:00,52.9,32.0,30.41,SSE,157,0.0,2.5,45,0.00,,,0.00,WUHU21623XXSP,2013-04-30 12:45:00,
2013-04-30 08:50:00,53.2,32.3,30.41,SSE,157,0.0,3.1,45,0.00,,,0.00,WUHU21623XXSP,2013-04-30 12:50:00,
2013-04-30 08:52:00,53.4,33.0,30.41,SSE,157,0.0,3.1,46,0.00,,,0.00,WUHU21623XXSP,2013-04-30 12:52:00,
2013-04-30 08:58:00,53.8,32.8,30.41,SSE,157,0.0,3.6,45,0.00,,,0.00,WUHU21623XXSP,2013-04-30 12:58:00,
2013-04-30 09:03:00,53.8,32.8,30.41,SSE,157,0.0,3.6,45,0.00,,,0.00,WUHU21623XXSP,2013-04-30 13:03:00,
2013-04-30 09:08:00,54.3,32.2,30.41,SSE,157,0.0,0.0,43,0.00,,,0.00,WUHU21623XXSP,2013-04-30 13:08:00,
2013-04-30 09:19:00,55.2,31.9,30.41,SSE,157,0.0,0.0,41,0.00,,,0.00,WUHU21623XXSP,2013-04-30 13:19:00,
2013-04-30 09:24:00,55.6,30.9,30.41,SSE,157,0.0,0.0,39,0.00,,,0.00,WUHU21623XXSP,2013-04-30 13:24:00,
2013-04-30 09:29:00,55.9,28.4,30.41,SSE,157,0.0,0.0,35,0.00,,,0.00,WUHU21623XXSP,2013-04-30 13:29:00,
2013-04-30 09:34:00,56.1,28.6,30.41,SSE,157,0.0,0.0,35,0.00,,,0.00,WUHU21623XXSP,2013-04-30 13:34:00,
2013-04-30 09:39:00,56.5,30.3,30.41,South,180,0.0,1.6,37,0.00,,,0.00,WUHU21623XXSP,2013-04-30 13:39:00,
2013-04-30 09:44:00,56.8,29.9,30.40,South,180,0.0,1.6,36,0.00,,,0.00,WUHU21623XXSP,2013-04-30 13:44:00,
2013-04-30 09:49:00,57.7,30.8,30.41,South,180,0.0,0.0,36,0.00,,,0.00,WUHU21623XXSP,2013-04-30 13:49:00,
2013-04-30 09:54:00,58.3,29.8,30.41,SSE,157,0.0,0.0,34,0.00,,,0.00,WUHU21623XXSP,2013-04-30 13:54:00,
2013-04-30 09:59:00,58.8,29.6,30.41,SE,135,0.0,0.0,33,0.00,,,0.00,WUHU21623XXSP,2013-04-30 13:59:00,
2013-04-30 10:04:00,58.8,28.2,30.41,SE,135,0.0,0.0,31,0.00,,,0.00,WUHU21623XXSP,2013-04-30 14:04:00,
2013-04-30 10:09:00,59.7,29.0,30.41,SE,135,0.0,0.0,31,0.00,,,0.00,WUHU21623XXSP,2013-04-30 14:09:00,
2013-04-30 10:14:00,60.1,28.5,30.41,SE,135,0.0,5.4,30,0.00,,,0.00,WUHU21623XXSP,2013-04-30 14:14:00,
2013-04-30 10:19:00,60.6,29.7,30.41,SE,135,0.0,5.4,31,0.00,,,0.00,WUHU21623XXSP,2013-04-30 14:19:00,
2013-04-30 10:24:00,61.0,28.3,30.41,SSE,157,0.0,6.0,29,0.00,,,0.00,WUHU21623XXSP,2013-04-30 14:24:00,
2013-04-30 10:29:00,61.0,28.3,30.41,SSW,202,0.0,6.0,29,0.00,,,0.00,WUHU21623XXSP,2013-04-30 14:29:00,
2013-04-30 10:34:00,61.3,28.6,30.41,SSE,157,0.0,5.8,29,0.00,,,0.00,WUHU21623XXSP,2013-04-30 14:34:00,
2013-04-30 10:39:00,61.9,30.8,30.41,SSE,157,0.0,3.4,31,0.00,,,0.00,WUHU21623XXSP,2013-04-30 14:39:00,
2013-04-30 10:44:00,63.1,31.2,30.41,SSE,157,1.8,5.1,30,0.00,,,0.00,WUHU21623XXSP,2013-04-30 14:44:00,
2013-04-30 10:49:00,62.8,29.9,30.41,SSE,157,0.0,6.7,29,0.00,,,0.00,WUHU21623XXSP,2013-04-30 14:49:00,
2013-04-30 10:54:00,63.1,31.9,30.41,ENE,67,0.0,6.7,31,0.00,,,0.00,WUHU21623XXSP,2013-04-30 14:54:00,
2013-04-30 10:59:00,63.5,31.6,30.41,ENE,67,0.0,5.1,30,0.00,,,0.00,WUHU21623XXSP,2013-04-30 14:59:00,
2013-04-30 11:04:00,63.5,30.6,30.41,ESE,112,0.0,5.1,30,0.00,,,0.00,WUHU21623XXSP,2013-04-30 15:04:00,
2013-04-30 11:09:00,64.2,33.6,30.40,East,90,0.0,2.0,32,0.00,,,0.00,WUHU21623XXSP,2013-04-30 15:09:00,
2013-04-30 11:14:00,64.6,33.2,30.40,SE,135,2.5,3.6,31,0.00,,,0.00,WUHU21623XXSP,2013-04-30 15:14:00,
2013-04-30 11:19:00,64.8,33.4,30.40,ESE,112,0.0,3.6,31,0.00,,,0.00,WUHU21623XXSP,2013-04-30 15:19:00,
2013-04-30 11:24:00,65.8,34.8,30.40,SSE,157,1.8,4.0,31,0.00,,,0.00,WUHU21623XXSP,2013-04-30 15:24:00,
2013-04-30 11:25:00,66.0,34.5,30.40,East,90,0.0,4.0,31,0.00,,,0.00,WUHU21623XXSP,2013-04-30 15:25:00,
2013-04-30 11:31:00,65.7,33.5,30.40,SW,225,0.0,7.6,30,0.00,,,0.00,WUHU21623XXSP,2013-04-30 15:31:00,
2013-04-30 11:36:00,65.1,32.0,30.40,South,180,1.6,7.6,31,0.00,,,0.00,WUHU21623XXSP,2013-04-30 15:36:00,
2013-04-30 11:41:00,65.5,34.1,30.40,NE,45,0.0,6.3,31,0.00,,,0.00,WUHU21623XXSP,2013-04-30 15:41:00,
2013-04-30 11:53:00,65.8,34.4,30.39,NNE,22,0.0,8.1,31,0.00,,,0.00,WUHU21623XXSP,2013-04-30 15:53:00,
2013-04-30 11:58:00,66.0,34.5,30.40,ESE,112,0.0,8.1,30,0.00,,,0.00,WUHU21623XXSP,2013-04-30 15:58:00,
2013-04-30 12:03:00,66.0,34.5,30.39,ENE,67,0.0,7.2,31,0.00,,,0.00,WUHU21623XXSP,2013-04-30 16:03:00,
2013-04-30 12:08:00,66.0,34.5,30.39,SSE,157,0.0,6.7,31,0.00,,,0.00,WUHU21623XXSP,2013-04-30 16:08:00,
2013-04-30 12:13:00,66.9,35.3,30.39,NE,45,0.0,6.7,31,0.00,,,0.00,WUHU21623XXSP,2013-04-30 16:13:00,
2013-04-30 12:18:00,67.6,35.9,30.39,SE,135,0.0,3.1,31,0.00,,,0.00,WUHU21623XXSP,2013-04-30 16:18:00,
2013-04-30 12:23:00,67.8,35.3,30.39,SE,135,0.0,3.1,30,0.00,,,0.00,WUHU21623XXSP,2013-04-30 16:23:00,
2013-04-30 12:28:00,67.6,35.1,30.38,NE,45,4.7,6.7,30,0.00,,,0.00,WUHU21623XXSP,2013-04-30 16:28:00,
2013-04-30 12:33:00,67.8,36.0,30.39,NNE,22,0.0,6.7,31,0.00,,,0.00,WUHU21623XXSP,2013-04-30 16:33:00,
2013-04-30 12:38:00,67.1,34.7,30.38,NNW,337,0.0,6.0,30,0.00,,,0.00,WUHU21623XXSP,2013-04-30 16:38:00,
2013-04-30 12:43:00,67.1,35.4,30.38,NNE,22,1.8,4.7,30,0.00,,,0.00,WUHU21623XXSP,2013-04-30 16:43:00,
2013-04-30 12:48:00,67.6,35.9,30.38,WNW,292,0.0,4.7,31,0.00,,,0.00,WUHU21623XXSP,2013-04-30 16:48:00,
2013-04-30 12:53:00,68.4,36.5,30.38,ENE,67,0.0,6.7,31,0.00,,,0.00,WUHU21623XXSP,2013-04-30 16:53:00,
2013-04-30 12:58:00,69.3,37.3,30.38,ENE,67,0.0,6.7,31,0.00,,,0.00,WUHU21623XXSP,2013-04-30 16:58:00,
2013-04-30 13:03:00,68.7,36.1,30.38,ESE,112,1.1,6.0,30,0.00,,,0.00,WUHU21623XXSP,2013-04-30 17:03:00,
2013-04-30 13:08:00,69.3,36.6,30.38,ENE,67,5.1,6.0,30,0.00,,,0.00,WUHU21623XXSP,2013-04-30 17:08:00,
2013-04-30 13:13:00,69.6,36.9,30.38,NNE,22,0.0,6.9,30,0.00,,,0.00,WUHU21623XXSP,2013-04-30 17:13:00,
2013-04-30 13:18:00,70.0,37.2,30.38,SE,135,2.9,6.9,30,0.00,,,0.00,WUHU21623XXSP,2013-04-30 17:18:00,
2013-04-30 13:23:00,69.4,36.7,30.38,NE,45,0.0,4.3,30,0.00,,,0.00,WUHU21623XXSP,2013-04-30 17:23:00,
2013-04-30 13:28:00,69.3,36.6,30.38,SE,135,2.7,8.1,30,0.00,,,0.00,WUHU21623XXSP,2013-04-30 17:28:00,
2013-04-30 13:33:00,69.1,37.1,30.38,NE,45,0.0,8.1,31,0.00,,,0.00,WUHU21623XXSP,2013-04-30 17:33:00,
2013-04-30 13:38:00,68.9,36.2,30.38,SSW,202,3.6,5.8,30,0.00,,,0.00,WUHU21623XXSP,2013-04-30 17:38:00,
2013-04-30 13:43:00,69.6,36.9,30.38,SSE,157,0.0,9.4,30,0.00,,,0.00,WUHU21623XXSP,2013-04-30 17:43:00,
2013-04-30 13:48:00,69.1,36.4,30.38,WNW,292,0.0,9.4,30,0.00,,,0.00,WUHU21623XXSP,2013-04-30 17:48:00,
2013-04-30 13:53:00,69.6,36.9,30.38,SSW,202,0.0,8.3,30,0.00,,,0.00,WUHU21623XXSP,2013-04-30 17:53:00,
2013-04-30 13:58:00,69.8,37.0,30.38,SSE,157,0.0,8.3,30,0.00,,,0.00,WUHU21623XXSP,2013-04-30 17:58:00,
2013-04-30 14:03:00,69.8,37.0,30.38,SE,135,1.1,7.8,30,0.00,,,0.00,WUHU21623XXSP,2013-04-30 18:03:00,
2013-04-30 14:08:00,70.9,38.0,30.38,SE,135,0.0,7.8,30,0.00,,,0.00,WUHU21623XXSP,2013-04-30 18:08:00,
2013-04-30 14:13:00,70.9,37.0,30.37,SW,225,0.0,6.5,29,0.00,,,0.00,WUHU21623XXSP,2013-04-30 18:13:00,
2013-04-30 14:18:00,70.0,36.2,30.37,South,180,0.0,6.5,29,0.00,,,0.00,WUHU21623XXSP,2013-04-30 18:18:00,
2013-04-30 14:23:00,70.0,37.2,30.37,NE,45,0.0,3.8,30,0.00,,,0.00,WUHU21623XXSP,2013-04-30 18:23:00,
2013-04-30 14:28:00,70.2,37.4,30.38,NNE,22,0.0,4.9,30,0.00,,,0.00,WUHU21623XXSP,2013-04-30 18:28:00,
2013-04-30 14:33:00,70.7,37.9,30.37,NE,45,2.9,6.5,30,0.00,,,0.00,WUHU21623XXSP,2013-04-30 18:33:00,
2013-04-30 14:38:00,70.3,37.5,30.37,East,90,2.9,6.5,30,0.00,,,0.00,WUHU21623XXSP,2013-04-30 18:38:00,
2013-04-30 14:43:00,70.0,37.2,30.37,ENE,67,0.0,5.8,30,0.00,,,0.00,WUHU21623XXSP,2013-04-30 18:43:00,
2013-04-30 14:48:00,70.3,37.5,30.37,ENE,67,0.0,4.7,30,0.00,,,0.00,WUHU21623XXSP,2013-04-30 18:48:00,
2013-04-30 14:53:00,71.2,37.3,30.37,SW,225,4.0,6.9,29,0.00,,,0.00,WUHU21623XXSP,2013-04-30 18:53:00,
2013-04-30 14:58:00,71.4,39.2,30.37,SSE,157,1.1,6.9,31,0.00,,,0.00,WUHU21623XXSP,2013-04-30 18:58:00,
2013-04-30 15:03:00,72.3,39.2,30.37,SSE,157,1.8,8.1,30,0.00,,,0.00,WUHU21623XXSP,2013-04-30 19:03:00,
2013-04-30 15:08:00,72.7,38.5,30.37,SSE,157,0.0,8.1,29,0.00,,,0.00,WUHU21623XXSP,2013-04-30 19:08:00,
2013-04-30 15:13:00,71.8,37.8,30.37,SSE,157,0.0,6.3,29,0.00,,,0.00,WUHU21623XXSP,2013-04-30 19:13:00,
2013-04-30 15:18:00,71.4,37.5,30.37,WSW,247,0.0,6.3,29,0.00,,,0.00,WUHU21623XXSP,2013-04-30 19:18:00,
2013-04-30 15:23:00,72.3,38.2,30.37,SW,225,0.0,3.4,29,0.00,,,0.00,WUHU21623XXSP,2013-04-30 19:23:00,
2013-04-30 15:28:00,73.0,37.8,30.36,NE,45,0.0,4.5,28,0.00,,,0.00,WUHU21623XXSP,2013-04-30 19:28:00,
2013-04-30 15:33:00,72.7,38.5,30.36,WSW,247,0.0,6.9,29,0.00,,,0.00,WUHU21623XXSP,2013-04-30 19:33:00,
2013-04-30 15:38:00,73.2,38.9,30.37,WSW,247,0.0,6.9,29,0.00,,,0.00,WUHU21623XXSP,2013-04-30 19:38:00,
2013-04-30 15:43:00,73.0,37.8,30.37,WSW,247,0.0,6.0,28,0.00,,,0.00,WUHU21623XXSP,2013-04-30 19:43:00,
2013-04-30 15:48:00,72.7,37.5,30.37,WSW,247,0.0,7.2,28,0.00,,,0.00,WUHU21623XXSP,2013-04-30 19:48:00,
2013-04-30 15:53:00,72.5,37.3,30.37,WSW,247,0.0,7.2,28,0.00,,,0.00,WUHU21623XXSP,2013-04-30 19:53:00,
2013-04-30 15:58:00,72.0,36.9,30.36,WSW,247,0.0,2.7,28,0.00,,,0.00,WUHU21623XXSP,2013-04-30 19:58:00,
2013-04-30 16:03:00,72.3,37.2,30.36,WSW,247,0.0,2.7,28,0.00,,,0.00,WUHU21623XXSP,2013-04-30 20:03:00,
2013-04-30 16:08:00,71.2,37.3,30.37,WSW,247,0.0,7.2,29,0.00,,,0.00,WUHU21623XXSP,2013-04-30 20:08:00,
2013-04-30 16:13:00,71.8,37.8,30.36,NE,45,0.0,7.2,29,0.00,,,0.00,WUHU21623XXSP,2013-04-30 20:13:00,
2013-04-30 16:18:00,71.2,36.3,30.36,WSW,247,0.0,4.7,28,0.00,,,0.00,WUHU21623XXSP,2013-04-30 20:18:00,
2013-04-30 16:23:00,71.4,36.4,30.36,NE,45,0.0,4.7,28,0.00,,,0.00,WUHU21623XXSP,2013-04-30 20:23:00,
2013-04-30 16:28:00,71.6,37.6,30.36,WSW,247,3.6,4.9,29,0.00,,,0.00,WUHU21623XXSP,2013-04-30 20:28:00,
2013-04-30 16:33:00,71.4,37.5,30.36,WSW,247,0.0,4.9,29,0.00,,,0.00,WUHU21623XXSP,2013-04-30 20:33:00,
2013-04-30 16:38:00,71.6,37.6,30.36,WSW,247,0.0,3.1,29,0.00,,,0.00,WUHU21623XXSP,2013-04-30 20:38:00,
2013-04-30 16:43:00,71.8,36.8,30.36,WSW,247,2.0,3.1,28,0.00,,,0.00,WUHU21623XXSP,2013-04-30 20:43:00,
2013-04-30 16:48:00,71.8,37.8,30.36,WSW,247,0.0,3.1,29,0.00,,,0.00,WUHU21623XXSP,2013-04-30 20:48:00,
2013-04-30 16:53:00,71.6,37.6,30.36,WSW,247,1.1,2.0,29,0.00,,,0.00,WUHU21623XXSP,2013-04-30 20:53:00,
2013-04-30 16:58:00,70.7,36.8,30.36,WSW,247,0.0,6.7,29,0.00,,,0.00,WUHU21623XXSP,2013-04-30 20:58:00,
2013-04-30 17:03:00,71.1,38.2,30.37,WSW,247,1.1,6.7,30,0.00,,,0.00,WUHU21623XXSP,2013-04-30 21:03:00,
2013-04-30 17:08:00,71.4,36.4,30.37,WSW,247,4.0,4.0,28,0.00,,,0.00,WUHU21623XXSP,2013-04-30 21:08:00,
2013-04-30 17:13:00,70.9,37.0,30.36,WSW,247,2.2,4.0,29,0.00,,,0.00,WUHU21623XXSP,2013-04-30 21:13:00,
2013-04-30 17:18:00,70.5,37.7,30.37,WSW,247,0.0,3.6,30,0.00,,,0.00,WUHU21623XXSP,2013-04-30 21:18:00,
2013-04-30 17:23:00,70.3,36.5,30.36,WSW,247,0.0,3.6,29,0.00,,,0.00,WUHU21623XXSP,2013-04-30 21:23:00,
2013-04-30 17:28:00,70.3,36.5,30.36,WSW,247,0.0,2.5,29,0.00,,,0.00,WUHU21623XXSP,2013-04-30 21:28:00,
2013-04-30 17:33:00,70.5,36.7,30.36,WSW,247,0.0,2.9,29,0.00,,,0.00,WUHU21623XXSP,2013-04-30 21:33:00,
2013-04-30 17:38:00,70.0,36.2,30.36,SSE,157,0.0,7.4,29,0.00,,,0.00,WUHU21623XXSP,2013-04-30 21:38:00,
2013-04-30 17:43:00,69.3,37.3,30.36,ESE,112,0.0,7.4,31,0.00,,,0.00,WUHU21623XXSP,2013-04-30 21:43:00,
2013-04-30 17:48:00,69.1,36.4,30.36,WSW,247,0.0,1.3,30,0.00,,,0.00,WUHU21623XXSP,2013-04-30 21:48:00,
2013-04-30 17:53:00,68.7,36.8,30.36,WSW,247,0.0,1.3,31,0.00,,,0.00,WUHU21623XXSP,2013-04-30 21:53:00,
2013-04-30 17:56:00,68.2,36.3,30.37,NNE,22,0.0,1.1,31,0.00,,,0.00,WUHU21623XXSP,2013-04-30 21:56:00,
2013-04-30 17:58:00,68.2,36.3,30.37,NNE,22,0.0,1.1,31,0.00,,,0.00,WUHU21623XXSP,2013-04-30 21:58:00,
2013-04-30 18:01:00,67.8,35.3,30.37,NNE,22,0.0,3.1,30,0.00,,,0.00,WUHU21623XXSP,2013-04-30 22:01:00,
2013-04-30 18:07:00,67.5,35.7,30.37,NE,45,0.0,3.1,30,0.00,,,0.00,WUHU21623XXSP,2013-04-30 22:07:00,
2013-04-30 18:12:00,67.6,36.6,30.37,North,0,3.4,3.4,32,0.00,,,0.00,WUHU21623XXSP,2013-04-30 22:12:00,
2013-04-30 18:17:00,67.6,35.9,30.38,SE,135,0.0,6.7,31,0.00,,,0.00,WUHU21623XXSP,2013-04-30 22:17:00,
2013-04-30 18:23:00,67.8,35.3,30.37,NNE,22,0.0,4.0,30,0.00,,,0.00,WUHU21623XXSP,2013-04-30 22:23:00,
2013-04-30 18:28:00,67.6,35.1,30.37,East,90,0.0,4.0,30,0.00,,,0.00,WUHU21623XXSP,2013-04-30 22:28:00,
2013-04-30 18:33:00,66.9,34.6,30.37,NE,45,0.0,6.0,30,0.00,,,0.00,WUHU21623XXSP,2013-04-30 22:33:00,
2013-04-30 18:38:00,66.4,34.8,30.38,ENE,67,0.0,6.0,31,0.00,,,0.00,WUHU21623XXSP,2013-04-30 22:38:00,
2013-04-30 18:44:00,66.0,35.3,30.38,NE,45,0.0,4.7,32,0.00,,,0.00,WUHU21623XXSP,2013-04-30 22:44:00,
2013-04-30 18:49:00,65.7,35.7,30.38,ESE,112,0.0,2.0,33,0.00,,,0.00,WUHU21623XXSP,2013-04-30 22:49:00,
2013-04-30 18:54:00,65.3,34.6,30.38,NE,45,0.0,0.0,32,0.00,,,0.00,WUHU21623XXSP,2013-04-30 22:54:00,
2013-04-30 18:59:00,65.1,35.2,30.38,NE,45,0.0,0.0,33,0.00,,,0.00,WUHU21623XXSP,2013-04-30 22:59:00,
2013-04-30 19:05:00,64.9,35.7,30.38,East,90,3.6,6.0,34,0.00,,,0.00,WUHU21623XXSP,2013-04-30 23:05:00,
2013-04-30 19:16:00,64.2,35.1,30.39,ENE,67,1.3,6.0,34,0.00,,,0.00,WUHU21623XXSP,2013-04-30 23:16:00,
2013-04-30 19:21:00,64.0,34.9,30.39,ESE,112,0.0,1.3,34,0.00,,,0.00,WUHU21623XXSP,2013-04-30 23:21:00,
2013-04-30 19:26:00,63.3,34.3,30.39,ESE,112,0.0,0.0,34,0.00,,,0.00,WUHU21623XXSP,2013-04-30 23:26:00,
2013-04-30 19:31:00,63.1,34.1,30.39,South,180,0.0,0.0,34,0.00,,,0.00,WUHU21623XXSP,2013-04-30 23:31:00,
2013-04-30 19:36:00,62.8,34.5,30.39,South,180,0.0,0.0,35,0.00,,,0.00,WUHU21623XXSP,2013-04-30 23:36:00,
2013-04-30 19:41:00,62.4,34.2,30.39,SE,135,0.0,3.8,35,0.00,,,0.00,WUHU21623XXSP,2013-04-30 23:41:00,
2013-04-30 19:46:00,61.7,33.5,30.40,South,180,0.0,3.8,35,0.00,,,0.00,WUHU21623XXSP,2013-04-30 23:46:00,
2013-04-30 19:51:00,61.5,32.6,30.40,SE,135,0.0,0.0,34,0.00,,,0.00,WUHU21623XXSP,2013-04-30 23:51:00,
2013-04-30 19:56:00,61.2,33.0,30.40,SE,135,0.0,0.0,35,0.00,,,0.00,WUHU21623XXSP,2013-04-30 23:56:00,
2013-04-30 20:01:00,61.0,34.3,30.41,ESE,112,0.0,2.0,37,0.00,,,0.00,WUHU21623XXSP,2013-05-01 00:01:00,
2013-04-30 20:06:00,60.4,32.4,30.41,ESE,112,0.0,2.0,35,0.00,,,0.00,WUHU21623XXSP,2013-05-01 00:06:00,
2013-04-30 20:11:00,60.4,33.1,30.41,East,90,0.0,8.7,36,0.00,,,0.00,WUHU21623XXSP,2013-05-01 00:11:00,
2013-04-30 20:16:00,59.9,32.7,30.41,ESE,112,0.0,8.7,36,0.00,,,0.00,WUHU21623XXSP,2013-05-01 00:16:00,
2013-04-30 20:21:00,59.5,32.3,30.41,East,90,0.0,1.1,36,0.00,,,0.00,WUHU21623XXSP,2013-05-01 00:21:00,
2013-04-30 20:26:00,59.7,31.8,30.41,ESE,112,0.0,0.0,35,0.00,,,0.00,WUHU21623XXSP,2013-05-01 00:26:00,
2013-04-30 20:31:00,58.8,31.7,30.41,East,90,0.0,0.0,36,0.00,,,0.00,WUHU21623XXSP,2013-05-01 00:31:00,
2013-04-30 20:36:00,58.8,31.0,30.42,ENE,67,0.0,3.4,35,0.00,,,0.00,WUHU21623XXSP,2013-05-01 00:36:00,
2013-04-30 20:41:00,58.6,31.6,30.42,ESE,112,0.0,3.4,36,0.00,,,0.00,WUHU21623XXSP,2013-05-01 00:41:00,
2013-04-30 20:46:00,58.3,30.5,30.43,ESE,112,0.0,0.0,35,0.00,,,0.00,WUHU21623XXSP,2013-05-01 00:46:00,
2013-04-30 20:51:00,57.7,30.8,30.42,SE,135,0.0,2.7,36,0.00,,,0.00,WUHU21623XXSP,2013-05-01 00:51:00,
2013-04-30 20:56:00,57.4,30.4,30.43,NE,45,0.0,2.7,36,0.00,,,0.00,WUHU21623XXSP,2013-05-01 00:56:00,
2013-04-30 21:01:00,57.4,30.4,30.43,SE,135,0.0,2.5,36,0.00,,,0.00,WUHU21623XXSP,2013-05-01 01:01:00,
2013-04-30 21:06:00,57.0,30.1,30.42,SE,135,0.0,0.0,36,0.00,,,0.00,WUHU21623XXSP,2013-05-01 01:06:00,
2013-04-30 21:11:00,56.8,30.6,30.43,East,90,0.0,0.0,37,0.00,,,0.00,WUHU21623XXSP,2013-05-01 01:11:00,
2013-04-30 21:16:00,56.1,30.0,30.43,East,90,0.0,0.0,37,0.00,,,0.00,WUHU21623XXSP,2013-05-01 01:16:00,
2013-04-30 21:21:00,56.1,30.0,30.43,East,90,0.0,0.0,37,0.00,,,0.00,WUHU21623XXSP,2013-05-01 01:21:00,
2013-04-30 21:26:00,55.9,29.1,30.43,East,90,0.0,0.0,36,0.00,,,0.00,WUHU21623XXSP,2013-05-01 01:26:00,
2013-04-30 21:31:00,56.1,29.3,30.44,East,90,0.0,0.0,36,0.00,,,0.00,WUHU21623XXSP,2013-05-01 01:31:00,
2013-04-30 21:36:00,55.8,29.0,30.43,East,90,0.0,0.0,36,0.00,,,0.00,WUHU21623XXSP,2013-05-01 01:36:00,
2013-04-30 21:41:00,55.6,28.8,30.43,East,90,0.0,0.0,36,0.00,,,0.00,WUHU21623XXSP,2013-05-01 01:41:00,
2013-04-30 21:46:00,55.6,28.8,30.44,ENE,67,0.0,0.0,36,0.00,,,0.00,WUHU21623XXSP,2013-05-01 01:46:00,
2013-04-30 21:51:00,55.6,28.8,30.44,ENE,67,0.0,0.0,36,0.00,,,0.00,WUHU21623XXSP,2013-05-01 01:51:00,
2013-04-30 21:56:00,55.2,28.5,30.44,ENE,67,0.0,0.0,36,0.00,,,0.00,WUHU21623XXSP,2013-05-01 01:56:00,
2013-04-30 22:01:00,55.0,29.0,30.44,ENE,67,0.0,0.0,37,0.00,,,0.00,WUHU21623XXSP,2013-05-01 02:01:00,
2013-04-30 22:06:00,54.5,28.6,30.45,ENE,67,0.0,0.0,37,0.00,,,0.00,WUHU21623XXSP,2013-05-01 02:06:00,
2013-04-30 22:11:00,54.1,29.6,30.45,ENE,67,0.0,0.0,39,0.00,,,0.00,WUHU21623XXSP,2013-05-01 02:11:00,
2013-04-30 22:16:00,53.8,29.3,30.44,ENE,67,0.0,0.0,39,0.00,,,0.00,WUHU21623XXSP,2013-05-01 02:16:00,
2013-04-30 22:21:00,53.8,28.6,30.44,ENE,67,0.0,0.0,38,0.00,,,0.00,WUHU21623XXSP,2013-05-01 02:21:00,
2013-04-30 22:26:00,53.8,28.6,30.44,ENE,67,0.0,0.0,38,0.00,,,0.00,WUHU21623XXSP,2013-05-01 02:26:00,
2013-04-30 22:31:00,53.8,27.9,30.44,ENE,67,0.0,0.0,37,0.00,,,0.00,WUHU21623XXSP,2013-05-01 02:31:00,
2013-04-30 22:36:00,53.8,27.8,30.44,ENE,67,0.0,0.0,37,0.00,,,0.00,WUHU21623XXSP,2013-05-01 02:36:00,
2013-04-30 22:41:00,53.4,28.3,30.45,ENE,67,0.0,0.0,38,0.00,,,0.00,WUHU21623XXSP,2013-05-01 02:41:00,
2013-04-30 22:46:00,53.4,28.3,30.45,ENE,67,0.0,0.0,38,0.00,,,0.00,WUHU21623XXSP,2013-05-01 02:46:00,
2013-04-30 22:51:00,53.4,27.6,30.45,ENE,67,0.0,0.0,37,0.00,,,0.00,WUHU21623XXSP,2013-05-01 02:51:00,
2013-04-30 22:56:00,53.4,28.3,30.45,ENE,67,0.0,0.0,38,0.00,,,0.00,WUHU21623XXSP,2013-05-01 02:56:00,
2013-04-30 23:00:00,52.9,28.5,30.46,ENE,67,0.0,0.0,39,0.00,,,0.00,WUHU21623XXSP,2013-05-01 03:00:00,
2013-04-30 23:05:00,52.3,29.3,30.45,ENE,67,0.0,0.0,41,0.00,,,0.00,WUHU21623XXSP,2013-05-01 03:05:00,
2013-04-30 23:10:00,51.6,28.6,30.46,ENE,67,0.0,0.0,41,0.00,,,0.00,WUHU21623XXSP,2013-05-01 03:10:00,
2013-04-30 23:15:00,51.1,28.7,30.46,ENE,67,0.0,0.0,42,0.00,,,0.00,WUHU21623XXSP,2013-05-01 03:15:00,
2013-04-30 23:20:00,50.7,28.9,30.45,ENE,67,0.0,0.0,43,0.00,,,0.00,WUHU21623XXSP,2013-05-01 03:20:00,
2013-04-30 23:25:00,50.5,28.8,30.45,ENE,67,0.0,0.0,43,0.00,,,0.00,WUHU21623XXSP,2013-05-01 03:25:00,
2013-04-30 23:30:00,50.9,27.4,30.45,ENE,67,0.0,0.0,40,0.00,,,0.00,WUHU21623XXSP,2013-05-01 03:30:00,
2013-04-30 23:35:00,51.6,27.4,30.46,ENE,67,0.0,0.0,39,0.00,,,0.00,WUHU21623XXSP,2013-05-01 03:35:00,
2013-04-30 23:40:00,50.9,28.5,30.46,ENE,67,0.0,0.0,42,0.00,,,0.00,WUHU21623XXSP,2013-05-01 03:40:00,
2013-04-30 23:45:00,50.2,29.0,30.46,ENE,67,0.0,0.0,44,0.00,,,0.00,WUHU21623XXSP,2013-05-01 03:45:00,
2013-04-30 23:50:00,49.8,28.1,30.46,ENE,67,0.0,0.0,43,0.00,,,0.00,WUHU21623XXSP,2013-05-01 03:50:00,
2013-04-30 23:55:00,49.8,27.5,30.45,ENE,67,0.0,0.0,42,0.00,,,0.00,WUHU21623XXSP,2013-05-01 03:55:00,